[[{"header":{"parameterUnit":"m.s-1","parameterCategory":1,"la1":30.2991,"la2":30.254,"lo1":-89.0895,"lo2":-89.0444,"dy":0.0017,"dx":0.0017,"nx":28,"ny":28,"refTime":"2023-09-05T09:00:00:Z","depth":0,"parameterNumber":2,"parameterNumberName":"U-component_of_WINDS"},"data":[0,0,0,0,0,0,0,0,0,0,0,0,0,0,0,0,0,0,0,0,0,0,0,0,0,0,0,0,0,0,0,0,0,0,0,0,0,0,0,0,0,0,0,0,0,0,0,0,0,0,0,0,0,0,0,0,0,0,-2.5261,-2.5259,0,-2.5052,-2.5049,-2.5047,-2.4934,-2.4934,-2.4934,-2.4934,-2.471,-2.4704,-2.4698,0,0,0,0,0,0,0,0,0,0,0,0,0,-2.5554,-2.555,-2.5261,-2.5259,-2.5256,-2.5052,-2.5049,-2.5046,-2.4934,-2.4934,-2.4934,-2.4934,-2.4712,-2.4705,-2.4698,0,0,0,0,0,0,0,0,0,0,0,0,0,-2.5394,-2.5548,-2.5262,-2.5176,-2.5166,-2.5053,-2.5049,-2.5046,-2.4935,-2.4934,-2.4934,-2.4934,-2.4714,-2.4706,-2.4697,-2.465,0,0,-2.4671,-2.4667,0,0,0,0,0,0,0,0,-2.5403,-2.5384,-2.5191,-2.5181,-2.517,-2.5019,-2.507,-2.4913,-2.4935,-2.5022,-2.4934,-2.4933,-2.4812,-2.4796,-2.4757,-2.464,-2.463,-2.467,-2.4665,-2.4661,-2.4658,0,0,0,0,0,0,0,-2.5415,-2.5392,-2.5178,-2.5188,-2.5176,-2.5145,-2.5122,-2.504,-2.4921,-2.5014,-2.5006,-2.4983,-2.4806,-2.4765,-2.4751,-2.4627,-2.467,-2.4662,-2.4657,-2.4654,-2.446,-2.446,0,0,0,0,0,0,-2.5441,-2.5402,-2.5185,-2.5172,-2.5289,-2.514,-2.5114,-2.5068,-2.4922,-2.49,-2.4984,-2.4979,-2.478,-2.4761,-2.4742,-2.4677,-2.4661,-2.4653,-2.4648,-2.446,-2.446,-2.446,0,0,0,0,0,0,-2.5448,-2.5423,-2.5193,-2.5284,-2.5253,-2.5135,-2.5084,-2.5064,-2.5023,-2.4899,-2.4876,-2.4964,-2.4779,-2.4754,-2.4674,-2.4668,-2.4649,-2.4641,-2.446,-2.446,-2.446,-2.4547,0,0,0,0,0,0,-2.5457,-2.5426,-2.5409,-2.5285,-2.5249,-2.5132,-2.5084,-2.506,-2.5009,-2.5001,-2.4874,-2.4853,-2.4777,-2.4688,-2.4666,-2.4655,-2.4634,-2.446,-2.446,-2.446,-2.4544,-2.455,-2.4555,0,0,0,0,0,-2.5468,-2.544,-2.5409,-2.5383,-2.5225,-2.5132,-2.511,-2.5026,-2.5009,-2.499,-2.491,-2.4857,-2.4673,-2.4681,-2.4655,-2.4642,-2.446,-2.446,-2.446,-2.4541,-2.4549,-2.4555,0,0,0,0,0,0,-2.5562,-2.5422,-2.5386,-2.5318,-2.5238,-2.5113,-2.5085,-2.5037,-2.4957,-2.4952,-2.4849,-2.4821,-2.475,-2.4688,-2.4699,-2.4588,-2.456,-2.4555,-2.4631,-2.4637,-2.4643,-2.4658,-2.4627,0,0,0,0,0,-2.5576,-2.5514,-2.5394,-2.5345,-2.5307,-2.5204,-2.516,-2.5103,-2.5014,-2.4979,-2.4893,-2.4807,-2.4729,-2.468,-2.4602,-2.4535,-2.4505,-2.4513,-2.4519,-2.4524,-2.452,-2.4479,-2.4481,-2.446,-2.446,-2.446,0,0,-2.5601,-2.5517,-2.5484,-2.5362,-2.5293,-2.5229,-2.5176,-2.511,-2.506,-2.4967,-2.4887,-2.4822,-2.4718,-2.4645,-2.4608,-2.4591,-2.452,-2.4524,-2.4529,-2.4522,-2.4479,-2.4481,-2.4483,-2.446,-2.446,-2.446,0,0,-2.5616,-2.5547,-2.5499,-2.5432,-2.533,-2.5262,-2.5251,-2.5133,-2.5087,-2.5006,-2.4935,-2.4873,-2.4742,-2.4672,-2.4618,-2.4608,-2.4555,-2.4586,-2.4613,-2.4574,-2.4576,-2.4576,-2.4571,-2.4571,-2.4582,-2.4583,-2.4583,0,-2.566,-2.5563,-2.5479,-2.5418,-2.5366,-2.5283,-2.5231,-2.517,-2.5046,-2.501,-2.4994,-2.4828,-2.4753,-2.4661,-2.4659,-2.462,-2.4601,-2.4598,-2.4583,-2.4583,-2.4582,-2.4576,-2.4574,-2.4587,-2.4586,-2.4586,-2.4586,0,-2.5622,-2.5556,-2.5529,-2.5416,-2.536,-2.5304,-2.5209,-2.5162,-2.5111,-2.5044,-2.4961,-2.4868,-2.477,-2.4744,-2.4691,-2.4645,-2.4637,-2.4604,-2.4573,-2.459,-2.4582,-2.4579,-2.4593,-2.4591,-2.459,-2.4589,0,0,-2.5687,-2.553,-2.5521,-2.5469,-2.5351,-2.5297,-2.5237,-2.5144,-2.5105,-2.5023,-2.4968,-2.4861,-2.4829,-2.4769,-2.4708,-2.4674,-2.467,-2.4643,-2.4639,-2.465,-2.4611,-2.4636,-2.4634,-2.4636,-2.4635,-2.4635,-2.4619,0,-2.5683,-2.5574,-2.5497,-2.5417,-2.5354,-2.5275,-2.5222,-2.5143,-2.5079,-2.5014,-2.4941,-2.4866,-2.4831,-2.4794,-2.4758,-2.4679,-2.466,-2.4679,-2.458,-2.4578,-2.4607,-2.463,-2.4656,-2.4646,-2.4616,-2.4615,-2.4615,0,-2.5663,-2.5587,-2.5502,-2.5392,-2.5362,-2.5316,-2.5225,-2.5165,-2.5072,-2.5028,-2.4963,-2.4901,-2.4831,-2.4809,-2.471,-2.4725,-2.468,-2.4635,-2.4633,-2.4618,-2.4596,-2.4614,-2.464,-2.4638,-2.4609,-2.461,-2.461,0,-2.5717,-2.5594,-2.5526,-2.5484,-2.5354,-2.5323,-2.5267,-2.5175,-2.5124,-2.5044,-2.5009,-2.4921,-2.4872,-2.4803,-2.4718,-2.4711,-2.4627,-2.4599,-2.4586,-2.4588,-2.4569,-2.4571,-2.4587,-2.4545,-2.4545,-2.4545,-2.4545,0,-2.5719,-2.567,-2.5549,-2.5507,-2.5449,-2.536,-2.5303,-2.524,-2.5159,-2.5102,-2.5028,-2.4975,-2.4867,-2.48,-2.4733,-2.466,-2.4639,-2.4599,-2.4581,-2.4604,-2.4609,-2.4571,-2.4569,-2.4545,-2.4545,-2.4545,-2.4545,0,-2.5769,-2.5687,-2.5608,-2.5493,-2.5462,-2.5424,-2.5323,-2.5278,-2.5212,-2.514,-2.5118,-2.5012,-2.4929,-2.4839,-2.4725,-2.468,-2.4611,-2.4586,-2.4643,-2.4632,-2.4624,-2.4625,-2.4613,-2.4606,-2.4573,-2.4573,-2.4574,0,-2.5775,-2.5735,-2.5616,-2.5575,-2.5521,-2.5454,-2.5403,-2.5314,-2.5263,-2.5156,-2.5124,-2.5037,-2.4962,-2.4834,-2.4744,-2.4657,-2.4629,-2.4631,-2.4615,-2.4639,-2.4626,-2.4629,-2.4623,-2.4635,-2.4636,-2.4636,-2.4637,0,-2.5793,-2.5755,-2.5685,-2.5602,-2.5544,-2.5473,-2.5398,-2.5368,-2.5263,-2.521,-2.5127,-2.5069,-2.4955,-2.4868,-2.4771,-2.4709,-2.4655,-2.4644,-2.4635,-2.4657,-2.4691,-2.467,-2.4653,-2.4643,-2.4642,-2.4642,-2.4642,-2.4641,-2.5819,-2.578,-2.5691,-2.5616,-2.5552,-2.5484,-2.5437,-2.5366,-2.5296,-2.5198,-2.5149,-2.5066,-2.4974,-2.4837,-2.4778,-2.471,-2.4692,-2.4681,-2.4678,-2.4676,-2.4681,-2.4705,-2.4692,-2.4691,-2.4691,-2.4691,-2.4691,0,-2.5832,-2.5771,-2.5704,-2.5604,-2.5544,-2.5503,-2.5419,-2.5371,-2.53,-2.522,-2.515,-2.5053,-2.497,-2.4875,-2.4785,-2.4748,-2.4721,-2.4727,-2.4728,-2.4714,-2.4703,-2.4718,-2.4751,-2.4751,-2.4751,-2.4751,-2.4751,-2.4751,-2.5831,-2.5763,-2.5714,-2.5613,-2.5551,-2.5472,-2.5427,-2.5364,-2.53,-2.5197,-2.5128,-2.5069,-2.4982,-2.4886,-2.4806,-2.478,-2.4749,-2.4763,-2.4729,-2.472,-2.4715,-2.471,-2.4724,-2.4757,-2.4757,-2.4746,-2.4746,-2.4746]},{"header":{"parameterUnit":"m.s-1","parameterCategory":1,"la1":30.2991,"la2":30.254,"lo1":-89.0895,"lo2":-89.0444,"dy":0.0017,"dx":0.0017,"nx":28,"ny":28,"refTime":"2023-09-05T09:00:00:Z","depth":0,"parameterNumber":3,"parameterNumberName":"V-component_of_WINDS"},"data":[0,0,0,0,0,0,0,0,0,0,0,0,0,0,0,0,0,0,0,0,0,0,0,0,0,0,0,0,0,0,0,0,0,0,0,0,0,0,0,0,0,0,0,0,0,0,0,0,0,0,0,0,0,0,0,0,0,0,1.64,1.6401,0,1.6457,1.6457,1.6458,1.6516,1.6517,1.6518,1.6519,1.6576,1.6577,1.6578,0,0,0,0,0,0,0,0,0,0,0,0,0,1.6344,1.6344,1.64,1.6401,1.6401,1.6456,1.6457,1.6458,1.6516,1.6517,1.6518,1.6519,1.6576,1.6577,1.6578,0,0,0,0,0,0,0,0,0,0,0,0,0,1.6381,1.6345,1.64,1.6437,1.6441,1.6456,1.6457,1.6458,1.6516,1.6517,1.6518,1.652,1.6576,1.6577,1.6578,1.6561,0,0,1.6581,1.6582,0,0,0,0,0,0,0,0,1.6379,1.6383,1.6431,1.6434,1.6439,1.6481,1.6459,1.6493,1.6516,1.6487,1.6519,1.652,1.6543,1.6547,1.6555,1.6564,1.6566,1.6582,1.6582,1.6583,1.6583,0,0,0,0,0,0,0,1.6376,1.6381,1.6422,1.6431,1.6436,1.6451,1.6458,1.6465,1.6508,1.649,1.6494,1.65,1.6546,1.6554,1.6557,1.6567,1.6582,1.6583,1.6583,1.6584,1.6567,1.6566,0,0,0,0,0,0,1.6368,1.6378,1.6421,1.6424,1.6411,1.6451,1.6459,1.6466,1.6508,1.6516,1.6499,1.6503,1.6551,1.6556,1.6559,1.6544,1.6583,1.6584,1.6584,1.6568,1.6567,1.6566,0,0,0,0,0,0,1.6366,1.6371,1.6418,1.6402,1.641,1.6451,1.6459,1.6466,1.6475,1.6515,1.6523,1.65,1.6552,1.6558,1.6561,1.6547,1.6584,1.6585,1.657,1.6568,1.6566,1.6512,0,0,0,0,0,0,1.6364,1.637,1.6363,1.6402,1.641,1.6418,1.6458,1.6467,1.6477,1.6482,1.6517,1.6525,1.6554,1.6559,1.6562,1.6549,1.6586,1.6571,1.6569,1.6567,1.6515,1.6508,1.6503,0,0,0,0,0,1.6362,1.6345,1.6363,1.6368,1.6403,1.6417,1.6422,1.6456,1.6475,1.6469,1.6496,1.6523,1.6548,1.6558,1.6563,1.655,1.6572,1.657,1.6567,1.6518,1.651,1.6503,0,0,0,0,0,0,1.6303,1.6351,1.6371,1.6366,1.6387,1.6427,1.642,1.6446,1.6462,1.6466,1.6508,1.6516,1.6515,1.6533,1.6544,1.6537,1.6564,1.6562,1.6525,1.6518,1.6512,1.6507,1.6587,0,0,0,0,0,1.629,1.6297,1.6338,1.633,1.634,1.6378,1.6386,1.641,1.6434,1.6443,1.647,1.6492,1.6505,1.6512,1.6526,1.6518,1.6528,1.6512,1.6505,1.65,1.6498,1.6498,1.6491,1.6557,1.6557,1.6557,0,0,1.6261,1.6288,1.629,1.6319,1.6338,1.6346,1.6385,1.6391,1.6397,1.6444,1.6449,1.647,1.6497,1.6495,1.6496,1.651,1.6482,1.6497,1.6492,1.6493,1.6494,1.6488,1.6482,1.6556,1.6556,1.6556,0,0,1.6214,1.6235,1.6231,1.625,1.628,1.6306,1.6305,1.6342,1.6357,1.6363,1.6399,1.6408,1.6428,1.6448,1.646,1.6423,1.6449,1.6426,1.6394,1.6393,1.6388,1.6383,1.6372,1.6367,1.6424,1.6424,1.6424,0,1.6175,1.6188,1.6225,1.623,1.6242,1.6286,1.6283,1.63,1.6332,1.634,1.6356,1.6385,1.6406,1.6411,1.6402,1.641,1.6411,1.6422,1.6385,1.6381,1.6378,1.6367,1.6363,1.6421,1.6421,1.6422,1.6422,0,1.614,1.6148,1.6141,1.6172,1.6184,1.6184,1.6223,1.623,1.6255,1.628,1.6286,1.6314,1.6336,1.6339,1.6362,1.6347,1.6355,1.6378,1.6406,1.6368,1.6359,1.6355,1.6417,1.6418,1.6419,1.6419,0,0,1.6055,1.6109,1.6106,1.6121,1.6158,1.6166,1.6169,1.6191,1.6197,1.6219,1.6224,1.6242,1.6264,1.6278,1.6304,1.6303,1.6274,1.6326,1.6327,1.6316,1.6261,1.6245,1.6239,1.6292,1.6292,1.6291,1.626,0,1.6015,1.6023,1.6058,1.6057,1.6066,1.611,1.6113,1.6137,1.616,1.6172,1.6199,1.6212,1.6239,1.6248,1.6249,1.6277,1.6264,1.628,1.6298,1.6298,1.629,1.6234,1.6216,1.6185,1.6256,1.6256,1.6255,0,1.5968,1.5988,1.5987,1.6027,1.6032,1.6034,1.6058,1.6069,1.6097,1.6115,1.6132,1.6162,1.617,1.6196,1.6208,1.6218,1.6228,1.6243,1.6243,1.6246,1.6274,1.6237,1.6175,1.6171,1.6249,1.625,1.625,0,1.5908,1.5934,1.5938,1.595,1.5995,1.5997,1.6015,1.6045,1.6057,1.6078,1.6087,1.6108,1.612,1.6137,1.6173,1.6188,1.6181,1.621,1.6197,1.6196,1.6193,1.6193,1.6134,1.6198,1.6199,1.6199,1.6199,0,1.5859,1.5858,1.5912,1.5914,1.5915,1.5956,1.5955,1.5978,1.6005,1.6014,1.6052,1.606,1.6106,1.6119,1.6147,1.6154,1.6159,1.6174,1.6182,1.6171,1.6169,1.6178,1.6182,1.6197,1.6198,1.6198,1.6198,0,1.5792,1.5828,1.5835,1.5878,1.5889,1.5888,1.5925,1.593,1.5957,1.5968,1.5972,1.6015,1.6033,1.6071,1.6098,1.6117,1.6118,1.6131,1.6108,1.6113,1.6099,1.61,1.6043,1.6039,1.6105,1.6104,1.6104,0,1.5758,1.5758,1.5802,1.5811,1.5829,1.5842,1.5855,1.5896,1.5908,1.5942,1.5943,1.5964,1.5983,1.601,1.6044,1.6066,1.608,1.6059,1.6084,1.6074,1.6081,1.6081,1.6082,1.6053,1.6052,1.6051,1.6051,0,1.5696,1.5715,1.5731,1.5755,1.5769,1.5789,1.5812,1.5817,1.5864,1.5876,1.5895,1.591,1.5939,1.596,1.5988,1.6009,1.6038,1.6043,1.6042,1.6031,1.6018,1.6026,1.6094,1.6044,1.6045,1.6045,1.6046,1.6046,1.5645,1.5648,1.568,1.5698,1.572,1.5741,1.5748,1.5777,1.5794,1.5821,1.5845,1.5862,1.5894,1.5934,1.5953,1.5968,1.5983,1.598,1.5979,1.5978,1.5975,1.6016,1.5973,1.5974,1.5974,1.5974,1.5974,0,1.5586,1.5609,1.5625,1.5656,1.5671,1.5698,1.5726,1.5736,1.5751,1.5778,1.5796,1.582,1.5841,1.5878,1.5903,1.5908,1.5922,1.5913,1.5913,1.5918,1.596,1.5959,1.5901,1.5901,1.5901,1.5901,1.5901,1.5901,1.5557,1.5564,1.5586,1.5606,1.5629,1.5647,1.566,1.5681,1.5703,1.5727,1.5745,1.5769,1.5801,1.5829,1.585,1.5861,1.5869,1.5855,1.587,1.5908,1.5915,1.5921,1.5921,1.5856,1.5856,1.5828,1.5827,1.5827]}]]